Regional Weather Roundup
Issued by NWS

Home | Current Version | Previous Version | Graphics & Text | Print | Product List | Glossary On
Versions: 1 2 3 4 5 6 7 8 9 10 11 12 13 14 15 16 17 18 19 20 21 22 23 24 25 26 27 28 29 30 31 32 33 34 35 36 37 38 39 40 41 42 43 44 45 46 47 48 49 50
000
ASUS43 KIND 212209
RWRIN

WEATHER ROUNDUP FOR INDIANA
NATIONAL WEATHER SERVICE INDIANAPOLIS IN
500 PM EST SUN JAN 21 2018

NOTE: "FAIR" INDICATES FEW OR NO CLOUDS BELOW 12,000 FEET WITH NO
SIGNIFICANT WEATHER AND/OR OBSTRUCTIONS TO VISIBILITY.

* - STATION DOES NOT REPORT WEATHER SUCH AS PRECIPITATION OR FOG.

+ - STATION NOT QUALITY CONTROLLED BY THE NATIONAL WEATHER SERVICE.
    USE DATA WITH CAUTION...ESPECIALLY DEWPOINT AND RELATIVE
    HUMIDITY OBSERVATIONS.

INZ001>003-010>013-019-020-212300-
NORTHWEST INDIANA

CITY           SKY/WX    TMP DP  RH WIND       PRES   REMARKS
GARY /AIRPORT/ CLOUDY    46  45  93 VRB5      29.92R FOG
KNOX *+        CLOUDY    43  43 100 S7        29.94R VSB 1/4
LA PORTE +     FOG       38  38 100 CALM      29.94S VSB<1/4
MICHIGAN CITY+ CLOUDY    43  43 100 S3        29.94R FOG
MONTICELLO +   FOG       47  45  95 S7        29.94S VSB 1/2
RENSSELAER +   FOG       43  41  93 S8        29.93R VSB 1/4
VALPARAISO     FOG       44  43  96 SE6       29.93R VSB<1/4

$$

LMZ046-743>745-212300-
SOUTHERN LAKE MICHIGAN

STATION/POSITION TIME  TEMP    WIND        PRES    WAVE
                       AIR SEA DIR/SP/G            HT
                 (UTC) (F)     (DEG/KT/KT) (MB)    (FT)
BURNS HARBOR     2203   45     170/  5/ 13 1013.9
MICHIGAN CITY    2140   42     140/  3/  4   N/A

$$

INZ004-005-014>016-021>024-212300-
NORTH CENTRAL INDIANA

CITY           SKY/WX    TMP DP  RH WIND       PRES   REMARKS
ELKHART        LGT RAIN  41  39  93 E3        29.95S VSB 1/4
GOSHEN         LGT RAIN  43  43 100 SE5       29.95R VSB 1/4
LOGANSPORT +   FOG       43  43 100 S8        29.96S VSB<1/4
PERU/GRISSOM   FOG       47  47 100 S10       29.95S VSB 7/8
ROCHESTER +    FOG       46 N/A N/A S6        29.96R VSB 1/4
SOUTH BEND     FOG       41  41 100 E3        29.95R VSB 1/4
WARSAW +       FOG       43  43 100 S3        29.96R VSB 1/4

$$

INZ006>009-017-018-025>027-212300-
NORTHEAST INDIANA

CITY           SKY/WX    TMP DP  RH WIND       PRES   REMARKS
AUBURN +       FOG      N/A N/A N/A CALM      29.98S VSB<1/4
FORT WAYNE     DRZL/FOG  46  45  96 S8        29.99R VSB 1/8
HUNTINGTON +   FOG       46  45  97 S6        29.97S VSB 1/4
KENDALLVILLE + LGT RAIN  42  42 100 S5        29.97S VSB<1/4

$$

INZ028-029-035-036-043>045-051>053-212300-
WEST CENTRAL INDIANA

CITY           SKY/WX    TMP DP  RH WIND       PRES   REMARKS
CRAWFORDSVL +  FOG       45  45 100 MISG      29.96S VSB 1
GREENCASTLE +  FOG       48  48 100 S6        29.98R VSB 1
LAFAYETTE      FOG       47  47 100 S7        29.94S VSB 3/4
TERRE HAUTE    CLOUDY    49  47  93 S8        29.97R FOG

$$

INZ030>032-037>040-046>048-054>057-064-065-212300-
CENTRAL INDIANA

CITY           SKY/WX    TMP DP  RH WIND       PRES   REMARKS
COLUMBUS       CLOUDY    50  46  87 S9        30.02S
FRANKFORT +    FOG       49  48  97 S7        29.98R VSB 1/2
GREENWOOD *+   CLOUDY    51  49  93 S9        30.00S
INDIANAPOLIS   FOG       49  49 100 S9        29.99S VSB 1
-EAGLE CREEK   CLOUDY    49  48  97 S6        29.97S FOG
MARION +       FOG       45  45 100 CALM      29.99R VSB 1/4
MT COMFORT *+  CLOUDY    46  46 100 S7        30.00S
SHELBYVILLE    CLOUDY    51  47  86 S14       30.00S
ZIONSVILLE +   FOG       47  47 100 S8        29.98S VSB 1

$$

INZ033-034-041-042-049-050-058-059-212300-
EAST CENTRAL INDIANA

CITY           SKY/WX    TMP DP  RH WIND       PRES   REMARKS
MUNCIE         CLOUDY    50  46  86 S10       29.99S
RICHMOND +     CLOUDY    43  43 100 S9        30.02S

$$

INZ060-061-067>069-081>083-085>088-212300-
SOUTHWEST INDIANA

CITY           SKY/WX    TMP DP  RH WIND       PRES   REMARKS
EVANSVILLE     CLOUDY    53  51  93 S10       30.00F
HUNTINGBURG +  CLOUDY    53  49  86 S9        30.02S
WASHINGTON +   CLOUDY    47  45  94 S9        29.99S FOG

$$

INZ062-063-066-070>080-084-089>092-212300-
SOUTH CENTRAL AND SOUTHEAST INDIANA

CITY           SKY/WX    TMP DP  RH WIND       PRES   REMARKS
BATESVILLE *+    N/A    N/A N/A N/A MISG        N/A
BLOOMINGTON    CLOUDY    51  49  92 S9        29.99S FOG
FRENCH LICK *+ CLOUDY    52 N/A N/A S7        30.01F
MADISON *+     CLOUDY    52  48  87 S7        30.06S
SEYMOUR +      CLOUDY    52  48  87 S10       30.03R

$$




USA.gov is the U.S. government's official web portal to all federal, state and local government web resources and services.